Preisvergleich
Suchen Sie bei den großen Preisvergleich Portalen gleichzeitig! 


Sitemap34

18.4.2024 2:02

In den Sitemaps finden Sie im Meta-Preisvergleich häufig gefragte Suchworte sortiert nach der Anzahl der Anfragen.

Anfragen Suchwort Ergebnisse Datum Quellen
8krombacher weizen1212024-04-16 00:07:0121
8cool water 125 ml eau de toilette1612024-04-17 00:07:0121
8schleifbänder 100x5603802024-03-19 00:07:0021
8boss bottled 200ml eau de toilette1292024-03-23 00:07:0120
8buddleja sungold242024-04-01 00:07:0121
8wolfcraft terrassenbau-set492024-03-25 00:07:0121
8fotodruck10232024-04-16 00:07:0121
8kathrein ebc10352024-03-29 00:07:0221
8xyladecor holzschutzlasur palisander362024-03-28 00:07:0121
8wagenheber 3 t5802024-03-23 00:07:0121
8park tool cwp-7222024-04-16 00:07:0121
8knauf sm 700 pro212024-04-10 00:07:0121
8danfoss adapter ravl2132024-04-10 00:07:0121
8golderdbeere1002024-04-13 00:07:0121
8victron multiplus 30002702024-04-01 00:07:0121
8winkelschleifer 125 im koffer1012024-03-31 00:07:0121
8mora garden 2372024-04-10 00:07:0120
8ciclopoli nagellack 6,6 ml272024-03-23 00:07:0121
8allpresan fuss spezial 200ml512024-03-13 00:07:0121
8touring high tech 15w-402522024-04-06 00:07:0121
8novus b401342024-04-05 00:07:0142
8lora adgc tabletten612024-04-13 00:07:0121
8bitubo-stoßdämpfer1292024-03-22 00:07:0121
8russka vital 54642024-03-26 00:07:0121
8nippon puffreis192024-03-20 00:07:0120
8tonerider pure vintage112024-03-24 00:07:0121
8asics gt 1000 gtx herren1642024-04-08 00:07:0120
82500 blatt kopierpapier3412024-04-11 00:07:0121
8herlitz max file ordner6082024-04-11 00:07:0121
8evercopy premium342024-04-10 00:07:0121
8schlupfwespen gegen kleidermotten2482024-04-09 00:07:0221
8braun mq 20342024-04-07 00:07:0120
8capaplex 5122024-03-29 00:07:0221
8dremel oberfräsen-vorsatz 335752024-03-26 00:07:0121
8viablue nf s 1 mono932024-03-19 00:07:0021
8goodyear vector 4seasons 185 60 r151842024-03-31 00:07:0121
8mittelwände zander1752024-04-10 00:07:0121
8ate 24.0125-0145.1612024-03-18 00:07:0121
8cr 1220 lithium6032024-03-22 00:07:0120
8klemme 1 47422024-03-18 00:07:0121
8shimano kette hg 532032024-03-25 00:07:0121
8le creuset wasserkessel tradition612024-03-20 00:07:0120
8grohtherm 2000 34469001182024-04-09 00:07:0221
8fhs 1555222024-03-19 00:07:0021
8macbook gold 512gb1462024-03-30 00:07:0121
8manuka honig 250 mgo6912024-03-25 00:07:0121
8exide agm ek950302024-03-13 00:07:0120
8batterie 12v 800a3592024-03-18 00:07:0121
8ks tools 1791672024-03-21 00:07:0121
8caso fw2000382024-03-30 00:07:0120
8lavazza caffe crema gustoso172024-03-12 00:07:0121
8gemini sandalen4402024-04-03 00:07:0121
8delonghi entkalker ecodecalk2992024-03-11 00:07:0121
8wolf vs 302 e432024-03-26 00:07:0121
8viking 6002652024-03-16 00:07:0121
8yogablock kork2532024-03-25 00:07:0121
8verdunklungsvorhang 2 stück722024-03-15 00:07:0121
8sassoon motion hold172024-03-28 00:07:0121
8asus ux300162024-03-23 00:07:0119
8fujifilm xf 60mm332024-03-23 00:07:0121
8scherkopfreiniger braun2672024-03-13 00:07:0121
8multivitamine a-z712024-04-02 00:07:0121
8catan big box1512024-03-26 00:07:0121
8temperatursender2412024-03-16 00:07:0120
8xiaomi s31702024-03-20 00:07:0121
8herzass ratiopharm 100 mg562024-03-11 00:07:0121
8fjällräven övik fleece hoodie1302024-04-13 00:07:0121
8eden 511422024-03-19 00:07:0021
8chamberlain comfort ml700ev232024-03-28 00:07:0121
8cdl-handbuch272024-03-19 00:07:0020
8lelit victoria pl91t82024-04-14 00:07:0121
8makita akku gartenschere2432024-03-16 00:07:0121
8eurobox 40 x 304252024-04-14 00:07:0121
8worx wx42382024-04-03 00:07:0121
8quixx scheinwerfer982024-04-05 00:07:0121
8bionische regeneration492024-03-26 00:07:0121
8songmics sonnenliege1652024-03-28 00:07:0121
8acetamiprid celaflor careo112024-03-10 00:07:0121
8makita dcf300z382024-03-14 00:07:0121
86496b005472024-03-30 00:07:0121
8mobile klimaanlage 4-in-12862024-03-31 00:07:0121
8shoei neotec xl1162024-03-27 00:07:0121
8garmin drivesmart 60 lmt282024-03-30 00:07:0121
8eaton ellipse pro4832024-04-16 00:07:0121
8gardena ths 500652024-03-21 00:07:0121
8magnesium bisglycinate882024-04-02 00:07:0121
816tb sata festplatte4482024-04-09 00:07:0221
8birkenstock milano 41 schmal382024-04-06 00:07:0121
8adj tripar profile plus152024-04-11 00:07:0121
867030923152024-03-27 00:07:0121
8western digital elements 4tb usb 3562024-03-10 00:07:0121
8kgt 305 m292024-03-22 00:07:0121
8tp-link re3051002024-04-08 00:07:0121
8mq052d a592024-03-25 00:07:0121
8canon pg 545xl cl 546xl2562024-03-21 00:07:0121
8chlortabs 200g1732024-04-01 00:07:0121
8remmers mb 2k502024-03-10 00:07:0121
8google guthaben452024-03-12 00:07:0121
8seresto katze halsband bayer82024-03-15 00:07:0121
8kork trittschalldämmung 2mm1342024-04-02 00:07:0121
8uhz65442024-04-04 00:07:0121
8terrassenplatten holzoptik612024-04-13 00:07:0121
8reflecta digitdia 7000 diascanner102024-03-14 00:07:0120
8wolf garten va 346 e352024-04-15 00:07:0121
8wolf garten va 378 e312024-04-15 00:07:0121
8schleifband 100 x 9153762024-03-10 00:07:0121
8lm3301e92024-04-14 00:07:0121
8philips hue white color ambiance e14 led1132024-03-19 00:07:0021
8newmen evolution sl a.30162024-03-10 00:07:0121
8reflecta 700092024-04-12 00:07:0121
8roland td-17912024-03-27 00:07:0121
8dr. jacobs vitamin d3k2 öl102024-04-05 00:07:0121
8insta 3608502024-03-17 00:07:0121
8broil king baron s490112024-03-15 00:07:0121
8pikolinos fuencarral3162024-04-03 00:07:0121
8callaway rogue driver damen662024-04-17 00:07:0121
8hue bridge 4. generation232024-04-09 00:07:0221
8bearstep192024-04-10 00:07:0121
8taumea 50ml162024-03-14 00:07:0123
8busch müller ixback292024-04-11 00:07:0121
8sattelstütze 600mm1212024-04-12 00:07:0121
8dino kraftpaket 12v-600a starthilfegerät 66.6wh 18000mah82024-03-31 00:07:0121
8einhell akku-sense agillo1512024-04-04 00:07:0121
8switch pokemon evoli592024-03-31 00:07:0121
8satisfyer men heat vibration192024-03-23 00:07:0121
8speedo fastskin elite1192024-04-01 00:07:0121
8po5000c292024-03-24 00:07:0121
8remington pro-ion straight s7710302024-04-14 00:07:0121
8dga900zkx2422024-03-21 00:07:0120
8farbschmelzpulver832024-03-14 00:07:0121
8nüvi navi2482024-03-17 00:07:0121
8smartdevicebox282024-03-15 00:07:0121
8buddy ii 121922024-03-23 00:07:0121
8ddf485rfj602024-04-10 00:07:0121
8zi-hb 305192024-04-02 00:07:0120
8taino hero xl272024-04-15 00:07:0121
8original makita akku bl1850b, 18v 5,0 ah222024-04-09 00:07:0220
8coleman 4,5662024-03-27 00:07:0121
8westfalia bikelander classic622024-03-13 00:07:0121
8kärcher pcl4392024-04-15 00:07:0121
8gardena smart control3512024-04-18 00:07:0121
8unifi cloud key gen2 plus852024-03-12 00:07:0121
8victorinox outrider schwarz282024-03-30 00:07:0121
8tefal ultimate pure fv9844742024-03-19 00:07:0021
8ultra vita man1542024-04-14 00:07:0121
8hailo l80 comfortline 6 stufen412024-03-12 00:07:0121
8ade ke 1700102024-03-14 00:07:0120
8new layer6172024-04-14 00:07:0121
8hansgrohe 26336400772024-04-16 00:07:0121
8wenco dosenöffner232024-03-19 00:07:0020
8nas festplatte 6tb5222024-03-27 00:07:0121
8samsung tab 66522024-04-18 00:07:0121
8bepanthen 100g wund und heilsalbe482024-03-21 00:07:0121
8compo rasen moos-frei herbistop302024-04-13 00:07:0121
8broadfork182024-03-23 00:07:0121
8br-m81001452024-04-08 00:07:0121
8sbw-06d5h1062024-04-08 00:07:0121
8einhell farb-mörtelrührer tc-mx 1400-2 e672024-03-12 00:07:0121
8multiplex 6mm1562024-03-22 00:07:0121
8vileda magnum252024-04-09 00:07:0221
8makita dvc750lzx1682024-04-11 00:07:0121
8kai shun gabel1142024-03-11 00:07:0120
8lenovo thinkpad p532642024-03-25 00:07:0121
8trelock u6 l182024-04-10 00:07:0121
8magnifica ecam 22.110962024-04-16 00:07:0121
8netatmo außenmodul362024-04-02 00:07:0121
8contour next teststreifen 502562024-04-08 00:07:0121
8basmati reis 20kg592024-03-19 00:07:0021
8panasonic dgp1942024-04-08 00:07:0121
8natron 10 kg762024-03-24 00:07:0121
8rangierhilfe wohnwagen 12v442024-03-15 00:07:0120
8lechuza canto stone 401902024-03-24 00:07:0121
8bosch indego m7001532024-04-01 00:07:0121
8brast 4221282024-03-14 00:07:0119
8linomatic 500 easy262024-04-12 00:07:0121
8nolan n21 visor m1762024-03-31 00:07:0121
8dynavox x2000252024-03-15 00:07:0120
8uhz65lv492024-04-04 00:07:0121
86-minuten-tagebuch3292024-03-21 00:07:0121
8vitamin b12-loges1362024-03-13 00:07:0120
8apple macbook pro 2020 13,32022024-04-02 00:07:0121
8dw80001742024-03-23 00:07:0121
8varta cr2032 lithium knopfzellen 3v batterie1112024-03-12 00:07:0121
8honiggläser 500g1132024-03-12 00:07:0121
8supramatic 4982024-04-18 00:07:0120
8nike air force 1 weiß 431762024-03-25 00:07:0121
8hailo l100 topline1562024-03-29 00:07:0221
8park tool cm-5.3272024-04-18 00:07:0121
8gigaset gx1192024-04-07 00:07:0121
8regal beton9012024-04-16 00:07:0121
8sunpow ip68512024-03-21 00:07:0121
8sureflap haustierklappe mikrochip1482024-04-16 00:07:0121
8bgs 4083252024-04-04 00:07:0121
8head gravity tour732024-03-31 00:07:0120
8tern byb302024-03-20 00:07:0121
8rolektro v.31032024-04-11 00:07:0120
8nightveit wobbler1962024-03-16 00:07:0121
8milantoast kontaktgrill152024-03-29 00:07:0221
8eq-3 homematic ip heizkörperthermostat2982024-03-30 00:07:0121
8philips ep2220 40562024-04-12 00:07:0121
8ds120j1272024-03-17 00:07:0121
8einhell tc-pl 750522024-04-17 00:07:0121
8scheppach sc2200pe342024-03-19 00:07:0024
8bosch kir31902024-03-31 00:07:0121
8fritz repeater 2400 wlan repeater2032024-03-31 00:07:0121
8beurer mg 153552024-04-14 00:07:0121
8nagellack gegen nagelpilz 5ml802024-03-13 00:07:0121
8pa279cv1082024-03-20 00:07:0121
8microsoft 365 business standard1482024-04-15 00:07:0121
8smu4has48e342024-04-17 00:07:0121
8toto wc sitz2862024-04-14 00:07:0121
8nyy-j 5x6 50m142024-04-07 00:07:0120
8f.a.n. 7-zonen-kaltschaummatratze sweet dream xxl122024-04-09 00:07:0221
8lizetan plus combistäbchen1552024-03-30 00:07:0121
8kef kc 62232024-04-12 00:07:0121
8bosch 0275007522172024-04-15 00:07:0121
8eap 1101242024-04-14 00:07:0121
8inov-8 parkclaw2052024-04-12 00:07:0121
8scolia home122024-04-06 00:07:0121
8go e charger 11 kw982024-04-13 00:07:0120
8bosch wtg86402132024-04-04 00:07:0121
8somfy 1822660532024-04-12 00:07:0121
8sonicare 9900742024-04-02 00:07:0121
8steambow stinger 2282024-03-13 00:07:0121
8comfee mddp-50den7642024-04-03 00:07:0121
8matratzen topper 200x220 cm1342024-03-27 00:07:0121
8bosch advancedshear 18v1022024-03-20 00:07:0120
8cherry plus - sauerkirsch-konzentrat202024-04-15 00:07:0121
8lenovo legion 5i pro832024-04-09 00:07:0221
8ww80t654alx182024-04-09 00:07:0221
8prada luna rossa ocean2872024-04-17 00:07:0121
8heizkörper 500 15002272024-03-30 00:07:0121
8apple tag6292024-04-05 00:07:0121
8shelly 1 plus3202024-03-17 00:07:0121
8dahle shredmatic 90592024-03-17 00:07:0121
8bluegrass rogue core mips452024-04-10 00:07:0121
8panasonic es-lt68-k803372024-04-16 00:07:0121
8cube kathmandu slt 750282024-04-17 00:07:0121
8sony ht a7000512024-04-13 00:07:0121
8samsung qled 4k q60a322024-04-16 00:07:0121
8mini pc amd8292024-04-14 00:07:0121
8ct8g4sfra32a892024-03-22 00:07:0121
8schiesser rio 3er4012024-04-18 00:07:0121
8soundpeats air3732024-03-31 00:07:0121
8saeco granaroma592024-03-11 00:07:0122
8bosch kgn39aibt362024-03-23 00:07:0121
8sony xperia 1 iii 256gb502024-04-04 00:07:0121
8poi pilot connected92024-03-16 00:07:0121
8tp-link tapo c320ws512024-04-08 00:07:0121
8one million lucky692024-03-22 00:07:0121
8jackery solargenerator 500352024-03-31 00:07:0121
8cimco 101950642024-04-08 00:07:0121
8siemens sn57ys03ce92024-03-10 00:07:0121
8cli-581 multipack3492024-03-21 00:07:0121
8ap systems1002024-03-27 00:07:0121
8kärcher k 4 power control home2352024-04-09 00:07:0221
8crush grind kyoto142024-04-18 00:07:0121
8nuki smart lock pro2172024-03-24 00:07:0121
8wd 6 p s v-30 6 22 t812024-03-16 00:07:0121
8voltcraft sem6500332024-03-12 00:07:0121
8lg ultragear 27gp850-b332024-04-15 00:07:0120
8bauknecht wmt pro eco 6zb172024-03-20 00:07:0119
8lego 213331172024-03-23 00:07:0121
8rx 64006212024-04-09 00:07:0221
8nivona 790472024-03-16 00:07:0121
8substral celaflor schädlingsfrei careo1242024-04-08 00:07:0121
8mobicool me27212024-04-08 00:07:0121
8signature m6505862024-03-28 00:07:0122
8samsung galaxy a 133842024-04-16 00:07:0121
8pxn v9362024-03-27 00:07:0121
8thermacell mr-bp342024-04-18 00:07:0120
8iphone13 neu3852024-03-25 00:07:0121
8anker 633362024-04-08 00:07:0121
8festool ts 55 febq1192024-03-21 00:07:0121
8makita rt0702cx2j992024-03-26 00:07:0121
8acer aspire c27-1655792024-04-12 00:07:0121
8casio prw 6621832024-03-21 00:07:0121
8ps5 controller weiss1242024-03-27 00:07:0121
8samsung s22 fe612024-04-03 00:07:0121
8ricoh m 320fb512024-03-11 00:07:0121
8samsung galaxy s7fe3132024-03-11 00:07:0121
8gts 4 mini1522024-04-03 00:07:0121
8mgk7320402024-03-18 00:07:0121
870 65-6.51942024-03-22 00:07:0121
8eq-3 homematic ip heizkörperthermostat - evo802024-03-22 00:07:0121
8asus vivobook pro 141942024-03-19 00:07:0021
8lloyd ellard432024-03-23 00:07:0121
8myenergi eddi262024-03-18 00:07:0121
8senior15252024-03-10 00:07:0121
8cloud peak 2642024-04-01 00:07:0120
8core i5-13600k4532024-04-06 00:07:0121
8garmin varia 515802024-04-09 00:07:0221
8makita ux01g442024-04-18 00:07:0121
8mizuno wave lightning 48,5212024-04-10 00:07:0121
8sodastream art2262024-04-16 00:07:0121
8pur persönlich3852024-04-01 00:07:0121
8de longhi eletta explore perfetto ecam452.57.g352024-03-26 00:07:0121
8air tags902024-03-10 00:07:0120
8delta 2 ecoflow5772024-03-24 00:07:0121
8curved monitor 34 zoll4582024-04-13 00:07:0121
8osmo mobile 61782024-04-04 00:07:0121
8gigaset gs5 senior792024-03-31 00:07:0121
8park lite parkuhr1052024-03-20 00:07:0119
8samsung a356142024-04-17 00:07:0121
8lenovo yoga slim 7 pro x 14922024-04-01 00:07:0121
8casio prw 6600612024-04-02 00:07:0120
8asus rog flow x162102024-04-10 00:07:0119
8zafferano poldina pro mini1312024-03-10 00:07:0121
8sony srs-xg3001152024-04-12 00:07:0120
8micro led12062024-03-30 00:07:0121
8balkon solar 800w4112024-04-16 00:07:0121
8makita duc 101z742024-04-12 00:07:0118
8kärcher k 7 power home1502024-03-17 00:07:0121
8cube supreme rt hybrid exc 625162024-04-17 00:07:0121
8beurer ih 211212024-03-11 00:07:0121
8fujitsu futro s740282024-03-31 00:07:0121
8llivekit heißluftfritteuse532024-03-10 00:07:0121
8miele g7200 sci192024-03-18 00:07:0121
8silent base 802 weiß952024-03-17 00:07:0121
8s95c1242024-04-03 00:07:0121
8hoymiles hms-1800762024-04-03 00:07:0121
8dc-tz202d482024-04-10 00:07:0121
8bv550c642024-03-14 00:07:0121
8topdon4052024-04-06 00:07:0121
8zumo xt2702024-03-20 00:07:0121
8einhell ge-cm 18 30 li2022024-04-13 00:07:0121
8es-ls6a552024-04-08 00:07:0121
8giro aries spherical662024-03-22 00:07:0121
8philips oneblade 3603422024-03-14 00:07:0121
8epson expression home xp-42051682024-03-12 00:07:0121
8led lampion solar6552024-04-12 00:07:0121
8grt 18v-33592024-04-11 00:07:0121
8compo blattgrün-turbo172024-03-16 00:07:0121
8gardena cleverroll l easy metall382024-04-15 00:07:0121
8lg oled g3392024-03-24 00:07:0121
8powerstream4232024-03-24 00:07:0121
8technisat digitradio 574 ir792024-04-15 00:07:0121
8uvex urban planet672024-04-15 00:07:0121
8schiesser herren unterhose classic weiß772024-03-16 00:07:0121
8google 7 pro5602024-03-23 00:07:0119
8hp e34m g4562024-03-10 00:07:0120
8samsung s95c 65zoll92024-03-15 00:07:0121
8adifom4662024-04-06 00:07:0121
8pedigree dentastix tägliche zahnpflege für große hunde642024-03-28 00:07:0121
8dark base pro 901912024-03-18 00:07:0121
anzahl 345 xml 345


Preisvergleich
Wichtige Information zu den Preisangaben: Alle Preise verstehen sich inklusive der gesetzlichen Mehrwertsteuer und gegebebenfalls zuzüglich Versandkosten. Zum Zeitpunkt des Kaufes ist der aktuell auf der Händlerseite angegebene Preis maßgeblich. Bitte beachten Sie, dass aus technischen Gründen zeitweise Abweichungen, des Preises, der Lieferbarkeit und der Versandkosten entstehen können.

Affiliate-Offenlegung: Wenn Sie auf dieser Website auf Links zu verschiedenen Händlern klicken und einen Kauf tätigen, kann dies dazu führen, dass diese Website eine Provision erhält. Zu den Partnerprogrammen und Partnerschaften gehört unter anderem das eBay Partner Network. Als Amazon-Partner verdienen wir an qualifizierten Verkäufen.
Impressum / Datenschutzerklärung     Presse     Shops    
Copyright © 2003-2024 MetaMind GmbH